Starlink 36202

operational
NORAD ID: 67094 Int'l Des: 2025-298 Owner: SPXS Country: US Constellation: starlink
LEOCIRCULAR

关于 Starlink 36202

正在加载描述...

实时位置

正在加载3D地球...

即将过境

高度历史

Altitude vs Time

uPlot chart will show altitude changes over time

两行轨道根数

1 67094C 25298V 25349.42340278 -.00460900 00000+0 -68013-3 0 3495
2 67094 70.0015 243.0096 0006420 271.7734 193.1114 16.05171611 18
Epoch: Dec 15, 2025 • Age: 95 hours

当前状态

高度 280.2 km
速度 7.74 km/s
星下点 53.09°N, 176.01°W
发射日期 Dec 14, 2025
运行时间 4 days
类型 internet

技术详情

分类 Payload
质量 575.00 kg
干质量 530.00 kg
总质量 575.00 kg
长度 0.30 m
直径 4.10 m
跨度 29.00 m
形状 Box + pan
制造商 SPXS
平台类型 Starlink V2MO
阶段状态 In Orbit
所有者/国家 SPXS/US

大型星座

Loading constellations...